Home   Weather   Nadi   Past weeks

Flag for Fiji Past Weather in Nadi, Fiji — Yesterday and Last 2 Weeks

Now
63 °F

Passing clouds.


Feels Like: 63 °F
Forecast: 63 / 84 °F
Wind: 6 mph from East

Location: Nandi

Current Time: Aug 19, 2017 at 2:36:28 am

Latest Report: Aug 19, 2017 at 1:00 am


Visibility: N/A

Pressure: 29.92 "Hg

Humidity: 88%

Dew Point: 59 °F

Location of NadiLocation

Past Weather in Nadi — Graph

°F

Nadi Temperature Yesterday

Maximum temperature yesterday: 79 °F (at 11:00 am)
Minimum temperature yesterday: 57 °F (at 4:00 am)
Average temperature yesterday: 68 °F

High & Low Weather Summary for the Past Weeks

 TemperatureHumidityPressure
High86 °F (Aug 12, 12:00 pm)100% (Aug 15, 7:00 am)30.07 "Hg (Aug 15, 7:00 am)
Low57 °F (Aug 18, 4:00 am)35% (Aug 8, 3:00 pm)29.74 "Hg (Aug 16, 3:00 am)
Average74 °F73%29.95 "Hg
* Reported Aug 4 1:00 am — Aug 19 1:00 am, Nadi. Weather by CustomWeather, © 2017

Note: Actual official high and low records may vary slightly from our data, if they occured in-between our weather recording intervals... More about our weather records

Advertising

Nadi Weather History for the Previous 24 Hours

Scroll right to see more
 ConditionsComfort  
Time TempWeatherWind HumidityBarometerVisibility
1:00 am
Sat, Aug 19
63 °FPassing clouds.6 mph88%29.92 "HgN/A
12:00 am63 °FPassing clouds.3 mph88%29.95 "HgN/A
11:00 pm
Fri, Aug 18
63 °FPassing clouds.6 mph88%29.95 "HgN/A
10:00 pm66 °FPassing clouds.6 mph78%29.95 "HgN/A
9:00 pm68 °FPassing clouds.7 mph73%29.92 "HgN/A
8:00 pm70 °FPassing clouds.7 mph69%29.92 "HgN/A
7:00 pm72 °FPassing clouds.5 mph65%29.89 "HgN/A
6:00 pm77 °FPassing clouds.8 mph51%29.89 "HgN/A
5:00 pm77 °FPassing clouds.9 mph47%29.89 "HgN/A
4:00 pm79 °FPassing clouds.12 mph45%29.86 "HgN/A
3:00 pm79 °FPassing clouds.13 mph42%29.86 "HgN/A
2:00 pm79 °FPassing clouds.15 mph48%29.89 "HgN/A
1:00 pm79 °FPassing clouds.14 mph48%29.92 "HgN/A
11:00 am79 °FPassing clouds.5 mph45%29.95 "HgN/A
10:00 am77 °FPassing clouds.8 mph51%29.98 "HgN/A
9:00 am72 °FPassing clouds.3 mph69%29.98 "HgN/A
8:00 am63 °FPassing clouds.3 mph83%29.98 "HgN/A
7:00 am57 °FPassing clouds.6 mph94%29.95 "HgN/A
6:00 am57 °FPassing clouds.3 mph94%29.95 "HgN/A
5:00 am57 °FPassing clouds.5 mph94%29.92 "HgN/A
4:00 am57 °FPassing clouds.3 mph94%29.92 "HgN/A
3:00 am59 °FPassing clouds.6 mph88%29.92 "HgN/A
2:00 am59 °FPassing clouds.5 mph94%29.95 "HgN/A
Weather by CustomWeather, © 2017

See weather overviewHow to use our weather pages